Location: Bow
(51.5261°N, 0.0167°W)
Time: 00:46:24
(UTC+00:00)

NOSS 3-2 (A) - Visible Passes

Search period start: 24 January 2021 00:00
Search period end: 03 February 2021 00:00
Orbit: 789 x 1419 km, 63.4° (Epoch: 22 January)

Date Brightness Start Highest point End Pass type
(mag) Time Alt. Az. Time Alt. Az. Time Alt. Az.
24 Jan 4.9 05:25:53 10° S 05:31:02 36° ESE 05:36:50 10° NE visible
25 Jan 5.5 04:41:40 10° SSE 04:46:03 23° ESE 04:50:52 10° ENE visible
25 Jan 3.4 06:30:11 10° SW 06:35:59 85° NW 06:42:48 10° NE visible
26 Jan 5.9 03:58:19 10° SE 04:01:13 14° ESE 04:04:17 10° ENE visible
26 Jan 3.7 05:44:57 10° SSW 05:50:37 68° SE 05:57:13 10° NE visible
27 Jan 4.3 05:00:28 12° S 05:05:24 45° ESE 05:11:34 10° NE visible
27 Jan 3.7 06:50:21 10° WSW 06:56:10 55° NNW 07:02:58 10° NE visible
28 Jan 5.0 04:17:23 19° SSE 04:20:21 29° ESE 04:25:46 10° ENE visible
28 Jan 3.4 06:04:50 11° SW 06:10:35 73° NW 06:17:25 10° NE visible
29 Jan 5.5 03:34:06 17° SE 03:35:27 19° ESE 03:39:35 10° ENE visible
29 Jan 3.4 05:21:32 25° SW 05:25:07 82° SE 05:31:51 10° NE visible
30 Jan 6.0 02:50:39 11° ESE 02:50:40 11° ESE 02:51:59 10° E visible
30 Jan 3.9 04:38:05 41° S 04:39:49 56° SE 04:46:16 10° NE visible
30 Jan 3.9 06:25:31 12° WSW 06:30:53 48° NNW 06:37:37 10° NE visible
31 Jan 4.5 03:54:30 37° ESE 03:54:42 37° ESE 04:00:33 10° NE visible
31 Jan 3.5 05:41:55 27° WSW 05:45:13 62° NW 05:52:02 10° NE visible
01 Feb 5.3 03:10:50 23° E 03:10:50 23° E 03:14:36 10° ENE visible
01 Feb 3.3 04:58:15 55° SW 04:59:40 84° NW 05:06:29 10° NE visible
01 Feb 4.3 06:45:47 10° W 06:51:27 36° NNW 06:58:01 10° NE visible
02 Feb 6.0 02:27:05 12° E 02:27:05 12° E 02:28:04 10° ENE visible
02 Feb 3.5 04:14:30 69° ESE 04:14:30 69° ESE 04:20:55 10° NE visible
02 Feb 4.1 06:01:54 21° W 06:05:37 43° NNW 06:12:18 10° NE visible
